Regional Weather Roundup
Issued by NWS

Home | Current Version | Previous Version | Graphics & Text | Print | Product List | Glossary Off
Versions: 1 2 3 4 5 6 7 8 9 10 11 12 13 14 15 16 17 18 19 20 21 22 23 24 25 26 27 28 29 30 31 32 33 34 35 36 37 38 39 40 41 42 43 44 45 46 47 48 49 50

000
ASUS43 KTOP 171808
RWRKS

WEATHER ROUNDUP FOR KANSAS
NATIONAL WEATHER SERVICE GOODLAND KS
100 PM CDT TUE OCT 17 2017

NOTE:  "FAIR" INDICATES FEW OR NO CLOUDS BELOW 12,000 FEET WITH NO
SIGNIFICANT WEATHER AND/OR OBSTRUCTIONS TO VISIBILITY.

KSZ001>006-013>018-027>032-041>047-171900-
NORTHWEST KANSAS

CITY           SKY/WX    TMP DP  RH WIND       PRES   REMARKS
GOODLAND       SUNNY     74  26  16 SE7       30.16F
6HR MIN TEMP:  35; 6HR MAX TEMP:  75;

HAYS           SUNNY     73  40  30 CALM      30.11F
HILL CITY      SUNNY     76  35  22 NE5       30.12F
6HR MIN TEMP:  38; 6HR MAX TEMP:  76;

RUSSELL        SUNNY     71  44  37 SW8       30.09F
6HR MIN TEMP:  41; 6HR MAX TEMP:  71;

$$

KSZ061>065-074>080-084>089-171900-
SOUTHWEST KANSAS

CITY           SKY/WX    TMP DP  RH WIND       PRES   REMARKS
DODGE CITY     SUNNY     73  40  30 S8        30.14F
6HR MIN TEMP:  42; 6HR MAX TEMP:  73;

ELKHART          N/A     71  42  35 E9          N/A
GARDEN CITY    SUNNY     76  37  24 E8        30.13F
6HR MIN TEMP:  34; 6HR MAX TEMP:  76;

GREAT BEND     SUNNY     70  45  40 SW9       30.12F
LIBERAL        SUNNY     70  43  37 SE9       30.14F
PRATT          SUNNY     71  41  33 S12G21    30.14F
6HR MIN TEMP:  42; 6HR MAX TEMP:  71;

$$

KSZ066>073-081>083-090>101-171900-
SOUTHEAST KANSAS

CITY           SKY/WX    TMP DP  RH WIND       PRES   REMARKS
CHANUTE        LGT RAIN  68  45  43 S17       30.22F
6HR MIN TEMP:  43; 6HR MAX TEMP:  68; 6HR PCP: TRACE;

COFFEYVILLE    SUNNY     67  46  47 S17G24    30.24F
6HR MIN TEMP:  44; 6HR MAX TEMP:  68;

HUTCHINSON     SUNNY     71  44  37 S15       30.13F
6HR MIN TEMP:  48; 6HR MAX TEMP:  71;

NEWTON         SUNNY     68  46  45 S20       30.15F
PARSONS        SUNNY     67  45  45 S12       30.24F
6HR MIN TEMP:  47; 6HR MAX TEMP:  68;

WICHITA INTL   SUNNY     68  45  43 S20       30.16F
6HR MIN TEMP:  48; 6HR MAX TEMP:  69;

WICHITA JABRA  SUNNY     69  44  40 S20G25    30.16F
6HR MIN TEMP:  47; 6HR MAX TEMP:  69;

WICHITA MCCONL SUNNY     69  44  39 S20G29    30.16F
WINFIELD       SUNNY     70  45  40 SW17G26   30.20F
6HR MIN TEMP:  46; 6HR MAX TEMP:  70;

$$

KSZ007>012-019>026-033>040-048>060-102>105-171900-
NORTHEAST KANSAS

CITY           SKY/WX    TMP DP  RH WIND       PRES   REMARKS
CONCORDIA      SUNNY     67  44  43 S9        30.10F
6HR MIN TEMP:  47; 6HR MAX TEMP:  67;

EMPORIA        SUNNY     71  43  36 S22G29    30.15F
6HR MIN TEMP:  44; 6HR MAX TEMP:  71;

LAWRENCE       SUNNY     70  45  40 S16G23    30.15F
6HR MIN TEMP:  43; 6HR MAX TEMP:  70;

MANHATTAN      SUNNY     71  46  40 SW14      30.11F
6HR MIN TEMP:  45; 6HR MAX TEMP:  71;

MARYSVILLE     SUNNY     66  45  45 S8        30.10F
OLATHE IND     SUNNY     68  45  43 S14G24    30.18F
6HR MIN TEMP:  44; 6HR MAX TEMP:  68;

OLATHE EXE     SUNNY     66  44  45 S15G23    30.18F
6HR MIN TEMP:  44; 6HR MAX TEMP:  67;

SALINA         SUNNY     70  47  43 S12       30.12F
6HR MIN TEMP:  49; 6HR MAX TEMP:  70;

TOPEKA BILLARD SUNNY     71  43  36 S15G22    30.13F
6HR MIN TEMP:  47; 6HR MAX TEMP:  71;

TOPEKA FORBES  SUNNY     72  43  35 S20G28    30.14F
6HR MIN TEMP:  51; 6HR MAX TEMP:  72;

$$




USA.gov is the U.S. government's official web portal to all federal, state and local government web resources and services.